TimePDT,TemperatureF,Dew PointF,Humidity,Sea Level PressureIn,VisibilityMPH,Wind Direction,Wind SpeedMPH,Gust SpeedMPH,PrecipitationIn,Events,Conditions,WindDirDegrees,DateUTC
12:15 AM,55.4,51.8,88,29.91,10.0,NW,3.5,-,N/A,,Overcast,310,2013-07-16 07:15:00
12:35 AM,53.6,51.8,94,29.90,10.0,NNW,3.5,-,N/A,,Overcast,330,2013-07-16 07:35:00
12:55 AM,53.6,51.8,94,29.90,10.0,NW,3.5,-,N/A,,Overcast,320,2013-07-16 07:55:00
1:15 AM,55.4,51.8,88,29.90,10.0,West,3.5,-,N/A,,Overcast,280,2013-07-16 08:15:00
1:35 AM,55.4,51.8,88,29.90,10.0,Calm,Calm,-,N/A,,Overcast,0,2013-07-16 08:35:00
1:55 AM,55.4,51.8,88,29.91,10.0,NW,3.5,-,N/A,,Overcast,320,2013-07-16 08:55:00
2:15 AM,53.6,53.6,100,29.91,9.0,NNW,3.5,-,N/A,,Overcast,330,2013-07-16 09:15:00
2:35 AM,53.6,53.6,100,29.91,9.0,NNW,3.5,-,N/A,,Overcast,340,2013-07-16 09:35:00
2:55 AM,53.6,53.6,100,29.90,10.0,NNW,3.5,-,N/A,,Overcast,340,2013-07-16 09:55:00
3:15 AM,53.6,53.6,100,29.91,10.0,NNW,3.5,-,N/A,,Overcast,340,2013-07-16 10:15:00
3:35 AM,53.6,53.6,100,29.91,10.0,Calm,Calm,-,N/A,,Overcast,0,2013-07-16 10:35:00
3:55 AM,53.6,51.8,94,29.91,10.0,WSW,5.8,-,N/A,,Overcast,250,2013-07-16 10:55:00
4:15 AM,53.6,50.0,88,29.91,10.0,West,6.9,-,N/A,,Overcast,280,2013-07-16 11:15:00
4:35 AM,53.6,51.8,94,29.91,10.0,WNW,3.5,-,N/A,,Overcast,290,2013-07-16 11:35:00
4:55 AM,53.6,51.8,94,29.91,8.0,WSW,4.6,-,N/A,,Overcast,240,2013-07-16 11:55:00
5:15 AM,53.6,51.8,94,29.92,9.0,West,5.8,-,N/A,,Overcast,260,2013-07-16 12:15:00
5:35 AM,53.6,50.0,88,29.92,10.0,West,4.6,-,N/A,,Overcast,270,2013-07-16 12:35:00
5:55 AM,53.6,50.0,88,29.93,10.0,West,4.6,-,N/A,,Overcast,260,2013-07-16 12:55:00
6:15 AM,53.6,50.0,88,29.93,10.0,Calm,Calm,-,N/A,,Overcast,0,2013-07-16 13:15:00
6:35 AM,53.6,51.8,94,29.93,10.0,Calm,Calm,-,N/A,,Overcast,0,2013-07-16 13:35:00
6:55 AM,55.4,50.0,82,29.94,10.0,West,5.8,-,N/A,,Overcast,270,2013-07-16 13:55:00
7:15 AM,55.4,51.8,88,29.94,10.0,SW,3.5,-,N/A,,Overcast,230,2013-07-16 14:15:00
7:35 AM,55.4,50.0,82,29.95,10.0,Calm,Calm,-,N/A,,Overcast,0,2013-07-16 14:35:00
7:55 AM,55.4,50.0,82,29.96,10.0,SSW,3.5,-,N/A,,Overcast,210,2013-07-16 14:55:00
8:15 AM,55.4,50.0,82,29.96,10.0,Calm,Calm,-,N/A,,Overcast,0,2013-07-16 15:15:00
8:35 AM,55.4,50.0,82,29.97,10.0,Calm,Calm,-,N/A,,Overcast,0,2013-07-16 15:35:00
8:55 AM,55.4,50.0,82,29.97,10.0,Calm,Calm,-,N/A,,Overcast,0,2013-07-16 15:55:00
9:15 AM,55.4,50.0,82,29.98,10.0,Calm,Calm,-,N/A,,Overcast,0,2013-07-16 16:15:00
9:35 AM,57.2,50.0,77,29.98,10.0,Calm,Calm,-,N/A,,Overcast,0,2013-07-16 16:35:00
9:55 AM,57.2,50.0,77,29.99,10.0,WSW,4.6,-,N/A,,Overcast,250,2013-07-16 16:55:00
10:15 AM,57.2,50.0,77,29.99,10.0,WSW,8.1,-,N/A,,Overcast,250,2013-07-16 17:15:00
10:35 AM,57.2,50.0,77,30.00,10.0,SSW,5.8,-,N/A,,Overcast,210,2013-07-16 17:35:00
10:55 AM,57.2,50.0,77,30.00,10.0,WSW,6.9,-,N/A,,Overcast,250,2013-07-16 17:55:00
11:15 AM,57.2,50.0,77,30.01,10.0,WNW,4.6,-,N/A,,Overcast,290,2013-07-16 18:15:00
11:35 AM,59.0,51.8,77,30.01,10.0,NW,5.8,-,N/A,,Overcast,310,2013-07-16 18:35:00
11:55 AM,59.0,51.8,77,30.02,10.0,NW,4.6,-,N/A,,Overcast,310,2013-07-16 18:55:00
12:15 PM,60.8,50.0,68,30.02,10.0,NW,3.5,-,N/A,,Overcast,320,2013-07-16 19:15:00
12:35 PM,62.6,51.8,68,30.02,10.0,NW,8.1,-,N/A,,Overcast,310,2013-07-16 19:35:00
12:55 PM,62.6,53.6,72,30.02,10.0,WNW,6.9,-,N/A,,Overcast,300,2013-07-16 19:55:00
1:15 PM,62.6,53.6,72,30.02,10.0,WNW,5.8,-,N/A,,Overcast,300,2013-07-16 20:15:00
1:35 PM,64.4,53.6,68,30.02,10.0,WNW,6.9,-,N/A,,Overcast,300,2013-07-16 20:35:00
1:55 PM,64.4,53.6,68,30.02,10.0,NW,6.9,-,N/A,,Overcast,320,2013-07-16 20:55:00
2:15 PM,66.2,53.6,64,30.02,10.0,NW,8.1,-,N/A,,Overcast,310,2013-07-16 21:15:00
2:35 PM,66.2,53.6,64,30.02,10.0,WNW,11.5,-,N/A,,Overcast,290,2013-07-16 21:35:00
2:55 PM,66.2,55.4,68,30.01,10.0,NW,8.1,-,N/A,,Overcast,310,2013-07-16 21:55:00
3:15 PM,66.2,53.6,64,30.01,10.0,West,10.4,16.1,N/A,,Overcast,280,2013-07-16 22:15:00
3:35 PM,66.2,55.4,68,30.01,10.0,WNW,10.4,-,N/A,,Overcast,300,2013-07-16 22:35:00
3:55 PM,68.0,53.6,60,30.01,10.0,WNW,8.1,16.1,N/A,,Overcast,290,2013-07-16 22:55:00
4:15 PM,68.0,55.4,64,30.01,10.0,WNW,10.4,16.1,N/A,,Overcast,290,2013-07-16 23:15:00
4:35 PM,66.2,55.4,68,30.01,10.0,WNW,8.1,-,N/A,,Overcast,300,2013-07-16 23:35:00
4:55 PM,66.2,55.4,68,30.01,10.0,WNW,11.5,-,N/A,,Overcast,300,2013-07-16 23:55:00
5:15 PM,64.4,53.6,68,30.01,10.0,West,13.8,-,N/A,,Overcast,280,2013-07-17 00:15:00
5:35 PM,64.4,53.6,68,30.00,10.0,WNW,10.4,-,N/A,,Overcast,290,2013-07-17 00:35:00
5:55 PM,64.4,53.6,68,30.00,10.0,WNW,11.5,17.3,N/A,,Overcast,290,2013-07-17 00:55:00
6:15 PM,64.4,53.6,68,30.00,10.0,West,12.7,-,N/A,,Overcast,280,2013-07-17 01:15:00
6:35 PM,62.6,53.6,72,30.00,10.0,West,10.4,-,N/A,,Overcast,280,2013-07-17 01:35:00
6:55 PM,62.6,53.6,72,30.00,10.0,West,10.4,17.3,N/A,,Overcast,270,2013-07-17 01:55:00
7:15 PM,62.6,53.6,72,30.00,10.0,West,11.5,-,N/A,,Overcast,270,2013-07-17 02:15:00
7:35 PM,62.6,53.6,72,30.00,10.0,West,12.7,18.4,N/A,,Overcast,280,2013-07-17 02:35:00
7:55 PM,62.6,53.6,72,30.01,10.0,West,13.8,18.4,N/A,,Overcast,280,2013-07-17 02:55:00
8:15 PM,60.8,53.6,77,30.01,10.0,West,12.7,-,N/A,,Overcast,280,2013-07-17 03:15:00
8:35 PM,59.0,53.6,82,30.02,10.0,WNW,9.2,-,N/A,,Overcast,300,2013-07-17 03:35:00
8:55 PM,57.2,53.6,88,30.02,10.0,WNW,6.9,-,N/A,,Overcast,300,2013-07-17 03:55:00
9:15 PM,57.2,55.4,94,30.03,9.0,WNW,4.6,-,N/A,,Mostly Cloudy,300,2013-07-17 04:15:00
9:35 PM,55.4,55.4,100,30.03,10.0,NNW,4.6,-,N/A,,Partly Cloudy,330,2013-07-17 04:35:00
9:55 PM,55.4,55.4,100,30.04,10.0,NNW,3.5,-,N/A,,Mostly Cloudy,330,2013-07-17 04:55:00
10:15 PM,55.4,53.6,94,30.05,10.0,NNW,3.5,-,N/A,,Overcast,340,2013-07-17 05:15:00
10:35 PM,53.6,53.6,100,30.05,10.0,Calm,Calm,-,N/A,,Mostly Cloudy,0,2013-07-17 05:35:00
10:55 PM,53.6,53.6,100,30.05,10.0,NNW,3.5,-,N/A,,Partly Cloudy,330,2013-07-17 05:55:00
11:15 PM,55.4,53.6,94,30.06,8.0,NW,3.5,-,N/A,,Clear,320,2013-07-17 06:15:00
11:35 PM,53.6,53.6,100,30.05,3.0,NW,4.6,-,N/A,,Clear,320,2013-07-17 06:35:00
11:55 PM,51.8,51.8,100,30.05,2.5,NNW,3.5,-,N/A,,Clear,340,2013-07-17 06:55:00